TimeMST,TemperatureF,Dew PointF,Humidity,Sea Level PressureIn,VisibilityMPH,Wind Direction,Wind SpeedMPH,Gust SpeedMPH,PrecipitationIn,Events,Conditions,WindDirDegrees,DateUTC
12:53 AM,-2.9,-8.0,79,30.55,10.0,Calm,Calm,-,N/A,,Clear,0,2013-01-05 07:53:00
1:53 AM,-0.9,-5.1,83,30.56,10.0,Calm,Calm,-,N/A,,Clear,0,2013-01-05 08:53:00
2:53 AM,-2.9,-8.0,79,30.58,10.0,ESE,3.5,-,N/A,,Clear,120,2013-01-05 09:53:00
3:53 AM,-5.1,-9.9,80,30.59,10.0,Calm,Calm,-,N/A,,Clear,0,2013-01-05 10:53:00
4:53 AM,-4.0,-9.0,79,30.63,10.0,Calm,Calm,-,N/A,,Clear,0,2013-01-05 11:53:00
5:53 AM,-5.1,-9.9,80,30.68,10.0,Calm,Calm,-,N/A,,Clear,0,2013-01-05 12:53:00
6:53 AM,-5.1,-9.0,83,30.71,10.0,Calm,Calm,-,N/A,,Clear,0,2013-01-05 13:53:00
7:53 AM,-7.1,-11.0,83,30.76,10.0,SE,3.5,-,N/A,,Clear,130,2013-01-05 14:53:00
8:53 AM,-2.0,-6.0,83,30.76,10.0,SE,3.5,-,N/A,,Clear,130,2013-01-05 15:53:00
9:53 AM,3.0,-0.9,84,30.76,10.0,Calm,Calm,-,N/A,,Clear,0,2013-01-05 16:53:00
10:53 AM,10.0,1.0,67,30.70,10.0,Calm,Calm,-,N/A,,Clear,0,2013-01-05 17:53:00
11:53 AM,15.1,1.9,56,30.66,10.0,Calm,Calm,-,N/A,,Clear,0,2013-01-05 18:53:00
12:53 PM,19.0,3.9,52,30.63,10.0,Calm,Calm,-,N/A,,Clear,0,2013-01-05 19:53:00
1:53 PM,19.9,3.9,50,30.60,10.0,Calm,Calm,-,N/A,,Clear,0,2013-01-05 20:53:00
2:53 PM,23.0,6.1,48,30.60,10.0,Calm,Calm,-,N/A,,Clear,0,2013-01-05 21:53:00
3:53 PM,24.1,5.0,44,30.59,10.0,Calm,Calm,-,N/A,,Clear,0,2013-01-05 22:53:00
4:53 PM,17.1,3.9,56,30.63,10.0,Calm,Calm,-,N/A,,Clear,0,2013-01-05 23:53:00
5:53 PM,12.9,1.9,62,30.67,10.0,Calm,Calm,-,N/A,,Clear,0,2013-01-06 00:53:00
6:53 PM,8.1,-0.0,70,30.70,10.0,East,4.6,-,N/A,,Clear,100,2013-01-06 01:53:00
7:53 PM,7.0,-0.9,70,30.72,10.0,Calm,Calm,-,N/A,,Clear,0,2013-01-06 02:53:00
8:53 PM,7.0,-0.9,70,30.70,10.0,Calm,Calm,-,N/A,,Clear,0,2013-01-06 03:53:00
9:53 PM,5.0,-2.9,70,30.69,10.0,Calm,Calm,-,N/A,,Clear,0,2013-01-06 04:53:00
10:53 PM,3.0,-2.0,80,30.67,10.0,Calm,Calm,-,N/A,,Clear,0,2013-01-06 05:53:00
11:53 PM,3.0,-2.9,76,30.64,10.0,Calm,Calm,-,N/A,,Clear,0,2013-01-06 06:53:00